Time,TemperatureF,DewpointF,PressureIn,WindDirection,WindDirectionDegrees,WindSpeedMPH,WindSpeedGustMPH,Humidity,HourlyPrecipIn,Conditions,Clouds,dailyrainin,SoftwareType,DateUTC
2013-10-30 00:13:00,37.0,28.0,30.36,WNW,298,0.0,1.0,70,0.00,,,-99.99,,2013-10-30 04:13:00,
2013-10-30 00:24:00,37.0,28.0,30.36,WNW,298,0.0,1.0,70,0.00,,,-99.99,,2013-10-30 04:24:00,
2013-10-30 00:54:00,38.0,28.0,30.35,WNW,298,0.0,0.0,67,0.00,,,-99.99,,2013-10-30 04:54:00,
2013-10-30 01:13:00,38.0,28.0,30.34,WNW,298,0.0,0.0,66,0.00,,,-99.99,,2013-10-30 05:13:00,
2013-10-30 01:22:00,38.0,28.0,30.34,WNW,298,0.0,0.0,66,0.00,,,-99.99,,2013-10-30 05:22:00,
2013-10-30 01:53:00,38.0,28.0,30.33,WNW,297,0.0,1.0,68,0.00,,,-99.99,,2013-10-30 05:53:00,
2013-10-30 02:02:00,38.0,28.0,30.33,WNW,297,0.0,1.0,68,0.00,,,-99.99,,2013-10-30 06:02:00,
2013-10-30 02:22:00,38.0,29.0,30.32,WNW,298,0.0,0.0,70,0.00,,,-99.99,,2013-10-30 06:22:00,
2013-10-30 02:53:00,38.0,30.0,30.32,WNW,298,0.0,0.0,73,0.00,,,-99.99,,2013-10-30 06:53:00,
2013-10-30 03:22:00,37.0,29.0,30.32,WNW,298,0.0,0.0,74,0.00,,,-99.99,,2013-10-30 07:22:00,
2013-10-30 03:42:00,37.0,29.0,30.32,WNW,298,0.0,0.0,72,0.00,,,-99.99,,2013-10-30 07:42:00,
2013-10-30 03:52:00,37.0,30.0,30.32,WNW,298,0.0,0.0,75,0.00,,,-99.99,,2013-10-30 07:52:00,
2013-10-30 04:12:00,37.0,31.0,30.31,WNW,298,0.0,0.0,78,0.00,,,-99.99,,2013-10-30 08:12:00,
2013-10-30 04:22:00,37.0,31.0,30.31,WNW,298,0.0,0.0,78,0.00,,,-99.99,,2013-10-30 08:22:00,
2013-10-30 04:42:00,37.0,30.0,30.31,WNW,298,0.0,0.0,76,0.00,,,-99.99,,2013-10-30 08:42:00,
2013-10-30 04:52:00,37.0,30.0,30.31,WNW,298,0.0,0.0,76,0.00,,,-99.99,,2013-10-30 08:52:00,
2013-10-30 05:22:00,37.0,30.0,30.29,WNW,298,0.0,0.0,76,0.00,,,-99.99,,2013-10-30 09:22:00,
2013-10-30 05:33:00,37.0,30.0,30.29,WNW,298,0.0,0.0,76,0.00,,,-99.99,,2013-10-30 09:33:00,
2013-10-30 05:54:00,37.0,30.0,30.29,WNW,298,0.0,0.0,76,0.00,,,-99.99,,2013-10-30 09:54:00,
2013-10-30 06:13:00,37.0,30.0,30.29,WNW,298,0.0,0.0,76,0.00,,,-99.99,,2013-10-30 10:13:00,
2013-10-30 06:23:00,37.0,30.0,30.29,WNW,298,0.0,0.0,76,0.00,,,-99.99,,2013-10-30 10:23:00,
2013-10-30 06:33:00,37.0,30.0,30.29,WNW,298,0.0,0.0,76,0.00,,,-99.99,,2013-10-30 10:33:00,
2013-10-30 06:53:00,37.0,30.0,30.29,WNW,298,0.0,0.0,76,0.00,,,-99.99,,2013-10-30 10:53:00,
2013-10-30 07:22:00,37.0,30.0,30.29,WNW,298,0.0,0.0,76,0.00,,,-99.99,,2013-10-30 11:22:00,
2013-10-30 07:52:00,37.0,30.0,30.29,WNW,298,0.0,0.0,76,0.00,,,-99.99,,2013-10-30 11:52:00,
2013-10-30 08:12:00,37.0,30.0,30.29,WNW,298,0.0,0.0,76,0.00,,,-99.99,,2013-10-30 12:12:00,
2013-10-30 08:22:00,37.0,30.0,30.29,WNW,298,0.0,0.0,76,0.00,,,-99.99,,2013-10-30 12:22:00,
2013-10-30 08:42:00,38.0,32.0,30.30,WNW,293,0.0,0.0,79,0.00,,,-99.99,,2013-10-30 12:42:00,
2013-10-30 08:52:00,40.0,34.0,30.30,WNW,293,0.0,0.0,78,0.00,,,-99.99,,2013-10-30 12:52:00,
2013-10-30 09:22:00,41.0,33.0,30.29,WNW,292,0.0,0.0,73,0.00,,,-99.99,,2013-10-30 13:22:00,
2013-10-30 09:52:00,44.0,36.0,30.30,WNW,298,0.0,0.0,72,0.00,,,-99.99,,2013-10-30 13:52:00,
2013-10-30 10:21:00,44.0,36.0,30.29,North,359,0.0,0.0,72,0.00,,,-99.99,,2013-10-30 14:21:00,
2013-10-30 10:42:00,45.0,37.0,30.29,North,360,0.0,0.0,72,0.00,,,-99.99,,2013-10-30 14:42:00,
2013-10-30 10:52:00,48.0,38.0,30.28,WNW,295,0.0,2.0,67,0.00,,,-99.99,,2013-10-30 14:52:00,
2013-10-30 11:22:00,52.0,42.0,30.28,SE,137,2.0,5.0,69,0.00,,,-99.99,,2013-10-30 15:22:00,
2013-10-30 11:43:00,54.0,44.0,30.27,West,272,2.0,6.0,68,0.00,,,-99.99,,2013-10-30 15:43:00,
2013-10-30 11:54:00,54.0,44.0,30.27,East,96,1.0,4.0,68,0.00,,,-99.99,,2013-10-30 15:54:00,
2013-10-30 12:23:00,56.0,46.0,30.27,North,358,2.0,6.0,68,0.00,,,-99.99,,2013-10-30 16:23:00,
2013-10-30 12:43:00,55.0,45.0,30.26,NW,326,1.0,5.0,68,0.00,,,-99.99,,2013-10-30 16:43:00,
2013-10-30 12:53:00,56.0,46.0,30.25,West,273,1.0,4.0,68,0.00,,,-99.99,,2013-10-30 16:53:00,
2013-10-30 13:02:00,56.0,46.0,30.25,West,273,1.0,4.0,68,0.00,,,-99.99,,2013-10-30 17:02:00,
2013-10-30 13:23:00,56.0,46.0,30.24,West,278,2.0,9.0,68,0.00,,,-99.99,,2013-10-30 17:23:00,
2013-10-30 13:52:00,56.0,46.0,30.22,SW,225,1.0,5.0,70,0.00,,,-99.99,,2013-10-30 17:52:00,
2013-10-30 14:02:00,56.0,46.0,30.22,SW,225,1.0,5.0,70,0.00,,,-99.99,,2013-10-30 18:02:00,
2013-10-30 14:12:00,56.0,46.0,30.22,SW,225,1.0,5.0,70,0.00,,,-99.99,,2013-10-30 18:12:00,
2013-10-30 14:22:00,56.0,46.0,30.22,SW,225,1.0,5.0,70,0.00,,,-99.99,,2013-10-30 18:22:00,
2013-10-30 14:42:00,55.0,47.0,30.22,East,95,1.0,5.0,74,0.00,,,-99.99,,2013-10-30 18:42:00,
2013-10-30 14:52:00,56.0,49.0,30.21,WSW,248,2.0,8.0,76,0.00,,,-99.99,,2013-10-30 18:52:00,
2013-10-30 15:22:00,56.0,49.0,30.20,SSE,155,1.0,5.0,76,0.00,,,-99.99,,2013-10-30 19:22:00,
2013-10-30 15:52:00,56.0,49.0,30.19,WSW,245,1.0,4.0,76,0.00,,,-99.99,,2013-10-30 19:52:00,
2013-10-30 16:02:00,56.0,49.0,30.19,WSW,245,1.0,4.0,76,0.00,,,-99.99,,2013-10-30 20:02:00,
2013-10-30 16:22:00,56.0,49.0,30.19,West,268,1.0,3.0,76,0.00,,,-99.99,,2013-10-30 20:22:00,
2013-10-30 16:52:00,56.0,49.0,30.19,South,187,0.0,5.0,77,0.00,,,-99.99,,2013-10-30 20:52:00,
2013-10-30 17:22:00,55.0,48.0,30.19,SE,145,0.0,1.0,78,0.00,,,-99.99,,2013-10-30 21:22:00,
2013-10-30 17:53:00,55.0,49.0,30.19,SSE,149,0.0,0.0,79,0.00,,,-99.99,,2013-10-30 21:53:00,
2013-10-30 18:04:00,55.0,49.0,30.19,SSE,149,0.0,0.0,79,0.00,,,-99.99,,2013-10-30 22:04:00,
2013-10-30 18:13:00,55.0,49.0,30.19,SSE,149,0.0,0.0,79,0.00,,,-99.99,,2013-10-30 22:13:00,
2013-10-30 18:23:00,54.0,48.0,30.19,SSE,149,0.0,0.0,80,0.00,,,-99.99,,2013-10-30 22:23:00,
2013-10-30 18:53:00,52.0,47.0,30.20,SSE,150,0.0,0.0,82,0.00,,,-99.99,,2013-10-30 22:53:00,
2013-10-30 19:23:00,51.0,47.0,30.22,SSW,198,0.0,0.0,86,0.00,,,-99.99,,2013-10-30 23:23:00,
2013-10-30 19:53:00,48.0,44.0,30.22,SSW,205,0.0,0.0,85,0.00,,,-99.99,,2013-10-30 23:53:00,
2013-10-30 20:22:00,48.0,45.0,30.23,SSW,205,0.0,0.0,88,0.00,,,-99.99,,2013-10-31 00:22:00,
2013-10-30 20:32:00,48.0,45.0,30.23,SSW,205,0.0,0.0,88,0.00,,,-99.99,,2013-10-31 00:32:00,
2013-10-30 20:52:00,47.0,44.0,30.22,SSW,205,0.0,0.0,88,0.00,,,-99.99,,2013-10-31 00:52:00,
2013-10-30 21:02:00,47.0,44.0,30.22,SSW,205,0.0,0.0,88,0.00,,,-99.99,,2013-10-31 01:02:00,
2013-10-30 21:22:00,46.0,43.0,30.22,SSW,205,0.0,0.0,90,0.00,,,-99.99,,2013-10-31 01:22:00,
2013-10-30 21:53:00,46.0,44.0,30.23,WSW,241,0.0,0.0,91,0.00,,,-99.99,,2013-10-31 01:53:00,
2013-10-30 22:02:00,46.0,44.0,30.23,WSW,241,0.0,0.0,91,0.00,,,-99.99,,2013-10-31 02:02:00,
2013-10-30 22:12:00,46.0,44.0,30.23,WSW,241,0.0,0.0,91,0.00,,,-99.99,,2013-10-31 02:12:00,
2013-10-30 22:22:00,47.0,45.0,30.23,WSW,242,0.0,0.0,93,0.00,,,-99.99,,2013-10-31 02:22:00,
2013-10-30 23:22:00,44.0,42.0,30.24,WNW,302,1.0,2.0,92,0.00,,,-99.99,,2013-10-31 03:22:00,
2013-10-30 23:34:00,44.0,42.0,30.24,WNW,302,1.0,2.0,92,0.00,,,-99.99,,2013-10-31 03:34:00,
2013-10-30 23:44:00,44.0,42.0,30.24,WNW,302,1.0,2.0,92,0.00,,,-99.99,,2013-10-31 03:44:00,
2013-10-30 23:55:00,43.0,42.0,30.24,WNW,302,0.0,1.0,95,0.00,,,-99.99,,2013-10-31 03:55:00,